Location: Albany
(35.0000°S, 118.0000°E)
Time: 04:24:13
(UTC-05:00)

Vanguard 3 - Visible Passes

Search period start: 19 February 2018 00:00
Search period end: 01 March 2018 00:00
Orbit: 508 x 3264 km, 33.3° (Epoch: 18 February)

Date Brightness Start Highest point End Pass type
(mag) Time Alt. Az. Time Alt. Az. Time Alt. Az.
19 Feb 11.0 11:00:32 14° ENE 11:00:32 14° ENE 11:04:06 10° E visible
19 Feb 9.8 13:05:06 50° NNE 13:07:04 52° NE 13:25:45 10° ESE visible
19 Feb 10.1 15:09:40 23° WNW 15:23:07 80° NNE 15:42:58 10° E visible
20 Feb 10.3 11:55:12 33° ENE 11:55:12 33° ENE 12:07:36 10° E visible
20 Feb 9.7 13:59:45 47° NW 14:06:12 70° NNE 14:26:14 10° E visible
20 Feb 10.2 16:04:54 10° W 16:23:33 85° N 16:42:42 10° E visible
21 Feb 11.0 10:45:18 14° E 10:45:18 14° E 10:47:51 10° E visible
21 Feb 9.7 12:49:51 55° NNE 12:50:10 55° NNE 13:08:50 10° ESE visible
21 Feb 10.0 14:54:24 28° WNW 15:06:10 82° N 15:26:22 10° E visible
22 Feb 10.3 11:39:56 32° ENE 11:39:56 32° ENE 11:50:43 10° E visible
22 Feb 9.5 13:44:30 54° NW 13:49:20 73° NNE 14:09:23 10° E visible
22 Feb 10.1 15:49:03 11° W 16:06:37 85° N 16:26:16 10° E visible
23 Feb 11.0 10:30:02 12° E 10:30:02 12° E 10:31:25 10° E visible
23 Feb 9.6 12:34:36 58° NE 12:34:36 58° NE 12:51:49 10° ESE visible
23 Feb 9.9 14:39:09 32° WNW 14:49:18 84° N 15:09:42 10° E visible
24 Feb 10.4 11:24:42 30° E 11:24:42 30° E 11:33:44 10° E visible
24 Feb 9.4 13:29:16 63° NW 13:32:34 76° NNE 13:52:27 10° E visible
24 Feb 10.1 15:33:49 14° W 15:49:41 85° N 16:09:44 10° E visible
25 Feb 11.1 10:14:49 10° E 10:14:49 10° E 10:14:51 10° E visible
25 Feb 9.6 12:19:23 57° ENE 12:19:23 57° ENE 12:34:45 10° E visible
25 Feb 9.8 14:23:57 37° W 14:32:30 85° N 14:52:54 10° E visible
26 Feb 10.4 11:09:33 27° E 11:09:33 27° E 11:16:44 10° E visible
26 Feb 9.3 13:14:06 72° NW 13:15:55 79° NNE 13:35:26 10° E visible
26 Feb 10.0 15:18:40 18° W 15:32:46 83° N 15:53:04 10° ENE visible
27 Feb 9.7 12:04:18 52° ENE 12:04:18 52° ENE 12:17:39 10° E visible
27 Feb 9.6 14:08:52 43° W 14:15:47 85° N 14:36:01 10° E visible
27 Feb 10.2 16:15:36 10° W 16:32:59 73° NNW 16:52:35 10° ENE visible
28 Feb 10.6 10:54:32 22° E 10:54:32 22° E 10:59:43 10° E visible
28 Feb 9.2 12:59:06 80° N 12:59:24 81° N 13:18:23 10° E visible
28 Feb 9.9 15:03:40 22° W 15:15:55 81° N 15:36:15 10° ENE visible
